EW2642 Weather Reports


Display with metric or nautical units.
time (UTC)temp
F
wind
direction
speed
MPH
gust
MPH
rain 1hr
in
rain 24hr
in
rain mn
in
humidity
%
barometer
mb
20200219091658 21 75 0.0 0.0 0.00 0.00 0.00 78 1033.1
20200219090017 21 76 0.0 0.0 0.00 0.00 0.00 78 1033.2
20200219084525 21 75 0.0 0.0 0.00 0.00 0.00 78 1033.1
20200219083144 21 75 0.0 0.0 0.00 0.00 0.00 78 1033.1
20200219081548 22 75 0.0 0.0 0.00 0.00 0.00 77 1033.1
20200219080101 22 75 0.0 0.0 0.00 0.00 0.00 77 1033.3
20200219074510 22 75 0.0 0.0 0.00 0.00 0.00 77 1033.4
20200219073120 22 75 0.0 0.0 0.00 0.00 0.00 76 1033.1
20200219071556 22 75 0.0 0.0 0.00 0.00 0.00 75 1033.1
20200219070109 23 75 0.0 0.0 0.00 0.00 0.00 74 1033.1
20200219064554 23 75 0.0 0.0 0.00 0.00 0.00 74 1032.8
20200219063111 23 75 0.0 0.0 0.00 0.00 0.00 74 1032.7
20200219061514 24 75 0.0 0.0 0.00 0.00 0.00 73 1032.8
20200219060059 24 75 0.0 0.0 0.00 0.00 0.00 72 1032.9
20200219054713 24 75 0.0 0.0 0.00 0.00 0.00 72 1032.8
20200219053120 24 75 2.0 0.0 0.00 0.00 0.00 72 1032.8
20200219051531 25 75 0.0 0.0 0.00 0.00 0.00 68 1032.3
20200219050216 26 75 1.0 0.0 0.00 0.00 0.00 67 1032.3
20200219044628 26 74 1.0 0.0 0.00 0.00 0.00 65 1032.4
20200219044501 26 74 1.0 0.0 0.00 0.00 0.00 65 1032.3
20200219043049 27 75 2.0 0.0 0.00 0.00 0.00 62 1032.0
20200219041603 27 76 2.0 0.0 0.00 0.00 0.00 59 1031.7
20200219040120 28 71 3.0 0.0 0.00 0.00 0.00 57 1031.5
20200219034700 28 19 1.0 0.0 0.00 0.00 0.00 58 1031.4
20200219034509 28 20 1.0 0.0 0.00 0.00 0.00 58 1031.3
20200219033056 29 15 2.0 0.0 0.00 0.00 0.00 55 1031.2
20200219031540 29 27 3.0 0.0 0.00 0.00 0.00 54 1031.0
20200219030101 29 51 3.0 0.0 0.00 0.00 0.00 54 1030.8
20200219024511 29 29 4.0 0.0 0.00 0.00 0.00 55 1030.9
20200219023125 29 29 3.0 0.0 0.00 0.00 0.00 56 1030.7
20200219021550 29 20 1.0 0.0 0.00 0.00 0.00 57 1030.5
20200219020014 30 51 1.0 0.0 0.00 0.00 0.00 56 1030.5
20200219014527 31 78 2.0 0.0 0.00 0.00 0.00 54 1030.4
20200219013141 32 80 3.0 0.0 0.00 0.00 0.00 53 1030.2
20200219011527 33 76 4.0 0.0 0.00 0.00 0.00 48 1030.2
20200219010006 34 95 4.0 0.0 0.00 0.00 0.00 45 1030.0
20200219004517 34 96 4.0 0.0 0.00 0.00 0.00 45 1030.0
20200219003111 35 68 4.0 0.0 0.00 0.00 0.00 42 1029.7
20200219001557 35 76 4.0 0.0 0.00 0.00 0.00 41 1029.7
20200219000014 35 74 5.0 0.0 0.00 0.00 0.00 44 1029.8
20200218234544 35 105 4.0 0.0 0.00 0.00 0.00 42 1029.8
20200218233120 35 113 4.0 0.0 0.00 0.00 0.00 44 1029.8
20200218231606 35 77 5.0 0.0 0.00 0.00 0.00 43 1029.8
20200218230009 35 71 4.0 0.0 0.00 0.00 0.00 40 1029.8
20200218224544 35 121 5.0 0.0 0.00 0.00 0.00 43 1029.8
20200218223101 35 85 5.0 0.0 0.00 0.00 0.00 46 1029.8
20200218221528 35 105 4.0 0.0 0.00 0.00 0.00 46 1030.0
20200218220012 35 61 5.0 0.0 0.00 0.00 0.00 49 1030.5
20200218214525 35 74 4.0 0.0 0.00 0.00 0.00 49 1030.4
20200218213105 35 94 3.0 0.0 0.00 0.00 0.00 52 1030.4
20200218211600 34 116 6.0 0.0 0.00 0.00 0.00 51 1030.5
20200218210005 34 64 4.0 0.0 0.00 0.00 0.00 54 1030.6
20200218204519 34 109 4.0 0.0 0.00 0.00 0.00 57 1030.7
20200218203055 33 84 5.0 0.0 0.00 0.00 0.00 55 1031.0
20200218201523 33 132 5.0 0.0 0.00 0.00 0.00 57 1031.2
20200218200048 33 132 5.0 0.0 0.00 0.00 0.00 59 1031.4
20200218194619 32 90 5.0 0.0 0.00 0.00 0.00 61 1031.6
20200218193046 31 107 4.0 0.0 0.00 0.00 0.00 62 1032.0
20200218191509 31 124 6.0 0.0 0.00 0.00 0.00 64 1032.0
20200218190123 30 115 5.0 0.0 0.00 0.00 0.00 67 1032.1
20200218184722 29 104 5.0 0.0 0.00 0.00 0.00 66 1032.0
20200218183038 29 126 6.0 0.0 0.00 0.00 0.00 66 1032.0
20200218181605 29 105 5.0 0.0 0.00 0.00 0.00 67 1031.9
20200218180022 28 94 4.0 0.0 0.00 0.00 0.00 65 1032.1
20200218174619 28 68 4.0 0.0 0.00 0.00 0.00 66 1032.2
20200218173003 27 78 3.0 0.0 0.00 0.00 0.00 69 1032.3
20200218171612 26 114 3.0 0.0 0.00 0.00 0.00 74 1032.3
20200218170010 25 84 2.0 0.0 0.00 0.00 0.00 80 1032.2
20200218164550 23 333 1.0 0.0 0.00 0.00 0.00 80 1032.4
20200218163137 21 333 0.0 0.0 0.00 0.00 0.00 82 1032.2
20200218161517 19 333 0.0 0.0 0.00 0.00 0.00 84 1032.2
20200218160121 18 342 0.0 0.0 0.00 0.00 0.00 84 1032.3
20200218154517 16 342 0.0 0.0 0.00 0.00 0.00 85 1032.1
20200218153059 15 342 0.0 0.0 0.00 0.00 0.00 85 1032.1
20200218151512 14 342 0.0 0.0 0.00 0.00 0.00 85 1032.0
20200218150139 14 342 0.0 0.0 0.00 0.00 0.00 84 1032.0
20200218144547 14 342 0.0 0.0 0.00 0.00 0.00 83 1032.0
20200218143006 15 342 0.0 0.0 0.00 0.00 0.00 81 1031.9
20200218141634 16 342 0.0 0.0 0.00 0.00 0.00 81 1031.9
20200218140109 16 341 0.0 0.0 0.00 0.00 0.00 81 1032.0
20200218134641 15 342 0.0 0.0 0.00 0.00 0.00 82 1032.0
20200218133014 15 342 0.0 0.0 0.00 0.00 0.00 82 1032.1
20200218131647 15 342 0.0 0.0 0.00 0.00 0.00 81 1032.1
20200218130056 16 342 0.0 0.0 0.00 0.00 0.00 81 1031.9
20200218124535 16 342 0.0 0.0 0.00 0.00 0.00 81 1032.0
20200218123008 16 341 0.0 0.0 0.00 0.00 0.00 82 1031.8
20200218121623 16 341 0.0 0.0 0.00 0.00 0.00 82 1032.0
20200218120041 16 342 0.0 0.0 0.00 0.00 0.00 81 1032.2
20200218114536 16 341 0.0 0.0 0.00 0.00 0.00 80 1032.3
20200218113137 17 342 0.0 0.0 0.00 0.00 0.00 80 1032.1
20200218111608 17 341 1.0 0.0 0.00 0.00 0.00 80 1032.1
20200218110006 17 341 0.0 0.0 0.00 0.00 0.00 80 1032.1
20200218104526 17 341 0.0 0.0 0.00 0.00 0.00 79 1032.4
20200218103139 18 341 0.0 0.0 0.00 0.00 0.00 79 1032.4
20200218101520 18 341 0.0 0.0 0.00 0.00 0.00 79 1032.5
20200218100128 18 341 0.0 0.0 0.00 0.00 0.00 78 1032.4
20200218094703 18 341 0.0 0.0 0.00 0.00 0.00 80 1032.3
20200218093034 18 341 0.0 0.0 0.00 0.00 0.00 79 1032.3